When you browse on this site, cookies collect data to enhance your experience and personalize the content and advertising you see.
Visit our Privacy Policy to learn more. By continuing to use the site, you agree to this use of cookies and data.
  • In Hungary
  • List of Countries
  • For 7 days
  • Water Temperature
  • Satellite Maps
  • Weather Map
  • News
  • Weather Widgets
  • user-avatar
    Login

    Hourly Weather Wurzburg

    Today, 20 April, Saturday

    Time Temperature Precipitation Wind Pressure Humidity
    00:00 +13°C° 0 mm 2 mps 753 mmHg 71%
    01:00 +11°C° 0 mm 3 mps 754 mmHg 70%
    02:00 +12°C° 0 mm 2 mps 753 mmHg 71%
    03:00 +10°C° 0 mm 2 mps 753 mmHg 73%
    04:00 +10°C° 0 mm 2 mps 753 mmHg 75%
    05:00 +10°C° 0 mm 2 mps 753 mmHg 74%
    06:00 +12°C° 0 mm 2 mps 754 mmHg 74%
    07:00 +12°C° 0 mm 2 mps 754 mmHg 74%
    08:00 +14°C° 0 mm 2 mps 754 mmHg 67%
    09:00 +16°C° 0 mm 2 mps 754 mmHg 59%
    10:00 +19°C° 0 mm 3 mps 754 mmHg 52%
    11:00 +20°C° 0 mm 3 mps 753 mmHg 47%
    12:00 +21°C° 0 mm 3 mps 753 mmHg 43%
    13:00 +22°C° 0 mm 3 mps 753 mmHg 38%
    14:00 +24°C° 0 mm 3 mps 753 mmHg 38%
    15:00 +24°C° 0 mm 3 mps 752 mmHg 38%
    16:00 +24°C° 0 mm 3 mps 752 mmHg 38%
    17:00 +21°C° 0 mm 3 mps 752 mmHg 45%
    18:00 +19°C° 0 mm 3 mps 752 mmHg 53%
    19:00 +17°C° 0 mm 3 mps 751 mmHg 60%
    20:00 +16°C° 0 mm 3 mps 751 mmHg 64%
    21:00 +14°C° 0 mm 3 mps 752 mmHg 67%
    22:00 +13°C° 0 mm 4 mps 752 mmHg 71%
    23:00 +12°C° 0 mm 3 mps 752 mmHg 73%

    Tomorrow, 21 April, Sunday

    Time Temperature Precipitation Wind Pressure Humidity
    00:00 +11°C° 0 mm 3 mps 752 mmHg 75%
    01:00 +10°C° 0 mm 2 mps 751 mmHg 78%
    02:00 +10°C° 0 mm 2 mps 751 mmHg 78%
    03:00 +9°C° 0 mm 2 mps 751 mmHg 78%
    04:00 +9°C° 0 mm 2 mps 750 mmHg 79%
    05:00 +9°C° 0 mm 2 mps 750 mmHg 77%
    06:00 +10°C° 0 mm 2 mps 750 mmHg 75%
    07:00 +10°C° 0 mm 2 mps 750 mmHg 73%
    08:00 +14°C° 0 mm 2 mps 750 mmHg 67%
    09:00 +16°C° 0 mm 2 mps 750 mmHg 60%
    10:00 +18°C° 0 mm 3 mps 749 mmHg 53%
    11:00 +19°C° 0 mm 3 mps 749 mmHg 49%
    12:00 +20°C° 0 mm 3 mps 748 mmHg 44%
    13:00 +22°C° 0 mm 3 mps 748 mmHg 39%
    14:00 +22°C° 0 mm 3 mps 747 mmHg 39%
    15:00 +22°C° 0 mm 3 mps 747 mmHg 39%
    16:00 +22°C° 0 mm 3 mps 746 mmHg 38%
    17:00 +20°C° 0 mm 3 mps 746 mmHg 45%
    18:00 +19°C° 0 mm 3 mps 745 mmHg 52%
    19:00 +17°C° 0 mm 2 mps 745 mmHg 59%
    20:00 +16°C° 0 mm 3 mps 745 mmHg 60%
    21:00 +13°C° 0 mm 3 mps 745 mmHg 62%
    22:00 +12°C° 0 mm 3 mps 745 mmHg 63%
    23:00 +11°C° 0 mm 3 mps 745 mmHg 65%

    Day after tomorrow, 22 April, Monday

    Time Temperature Precipitation Wind Pressure Humidity
    00:00 +10°C° 0 mm 3 mps 745 mmHg 67%
    01:00 +10°C° 0 mm 2 mps 744 mmHg 68%
    02:00 +9°C° 0 mm 2 mps 744 mmHg 71%
    03:00 +8°C° 0 mm 2 mps 744 mmHg 73%
    04:00 +8°C° 0 mm 2 mps 743 mmHg 75%
    05:00 +9°C° 0 mm 3 mps 743 mmHg 74%
    06:00 +9°C° 0 mm 3 mps 743 mmHg 73%
    07:00 +10°C° 0 mm 3 mps 742 mmHg 73%
    08:00 +12°C° 0 mm 4 mps 742 mmHg 66%
    09:00 +14°C° 0 mm 4 mps 741 mmHg 60%
    10:00 +16°C° 0 mm 5 mps 741 mmHg 54%
    11:00 +19°C° 0 mm 5 mps 740 mmHg 50%
    12:00 +20°C° 0 mm 6 mps 740 mmHg 47%
    13:00 +22°C° 0 mm 6 mps 739 mmHg 43%
    14:00 +22°C° 0 mm 6 mps 739 mmHg 43%
    15:00 +22°C° 0 mm 6 mps 738 mmHg 44%
    16:00 +22°C° 0 mm 6 mps 737 mmHg 44%
    17:00 +20°C° 0 mm 6 mps 737 mmHg 49%
    18:00 +17°C° 0 mm 5 mps 737 mmHg 54%
    19:00 +15°C° 0 mm 5 mps 736 mmHg 58%
    20:00 +14°C° 0 mm 5 mps 736 mmHg 59%
    21:00 +13°C° 0 mm 5 mps 736 mmHg 60%
    22:00 +12°C° 0 mm 5 mps 736 mmHg 60%
    23:00 +10°C° 0 mm 5 mps 736 mmHg 64%

    23 April, Tuesday

    Time Temperature Precipitation Wind Pressure Humidity
    00:00 +10°C° 0 mm 5 mps 735 mmHg 68%
    01:00 +9°C° 0 mm 5 mps 735 mmHg 71%
    02:00 +8°C° 0 mm 5 mps 735 mmHg 74%
    03:00 +8°C° 0 mm 4 mps 734 mmHg 76%
    04:00 +8°C° 0 mm 4 mps 734 mmHg 79%
    05:00 +8°C° 0 mm 4 mps 734 mmHg 80%
    06:00 +9°C° 0 mm 5 mps 733 mmHg 80%
    07:00 +10°C° 0 mm 5 mps 733 mmHg 81%
    08:00 +12°C° 0 mm 5 mps 733 mmHg 76%
    09:00 +14°C° 0 mm 4 mps 733 mmHg 71%
    10:00 +17°C° 0 mm 4 mps 733 mmHg 65%
    11:00 +18°C° 0 mm 4 mps 732 mmHg 63%
    12:00 +18°C° 0 mm 3 mps 732 mmHg 60%
    13:00 +19°C° 0 mm 3 mps 732 mmHg 58%
    14:00 +19°C° 0 mm 2 mps 731 mmHg 57%
    15:00 +20°C° 0 mm 2 mps 731 mmHg 56%
    16:00 +20°C° 0 mm 2 mps 731 mmHg 55%
    17:00 +19°C° 0 mm 2 mps 731 mmHg 62%
    18:00 +18°C° 0 mm 2 mps 731 mmHg 68%
    19:00 +16°C° 0 mm 2 mps 731 mmHg 74%
    20:00 +15°C° 0 mm 2 mps 731 mmHg 79%
    21:00 +14°C° 0 mm 1 mps 731 mmHg 84%
    22:00 +12°C° 0 mm 1 mps 732 mmHg 89%
    23:00 +12°C° 0 mm 1 mps 732 mmHg 90%

    24 April, Wednesday

    Time Temperature Precipitation Wind Pressure Humidity
    00:00 +11°C° 0 mm 0 mps 732 mmHg 90%
    01:00 +11°C° 0 mm 0 mps 733 mmHg 90%
    02:00 +12°C° 0 mm 1 mps 733 mmHg 91%
    03:00 +12°C° 0 mm 1 mps 734 mmHg 92%
    04:00 +12°C° 0 mm 2 mps 734 mmHg 92%
    05:00 +13°C° 0 mm 2 mps 735 mmHg 89%
    06:00 +14°C° 0 mm 2 mps 735 mmHg 87%
    07:00 +14°C° 0 mm 3 mps 736 mmHg 84%
    08:00 +16°C° 0.1 mm 3 mps 736 mmHg 79%
    09:00 +17°C° 0.1 mm 4 mps 736 mmHg 75%
    10:00 +17°C° 0.1 mm 5 mps 737 mmHg 70%
    11:00 +17°C° 0.6 mm 4 mps 736 mmHg 73%
    12:00 +17°C° 0.6 mm 3 mps 736 mmHg 76%
    13:00 +16°C° 0.6 mm 1 mps 736 mmHg 80%
    14:00 +18°C° 0 mm 2 mps 736 mmHg 71%
    15:00 +19°C° 0 mm 2 mps 736 mmHg 63%
    16:00 +21°C° 0 mm 2 mps 736 mmHg 55%
    17:00 +20°C° 0.4 mm 2 mps 736 mmHg 62%
    18:00 +19°C° 0.4 mm 1 mps 737 mmHg 70%
    19:00 +18°C° 0.4 mm 1 mps 737 mmHg 77%
    20:00 +16°C° 1.1 mm 2 mps 738 mmHg 82%
    21:00 +14°C° 1.1 mm 3 mps 738 mmHg 88%
    22:00 +13°C° 1.1 mm 4 mps 739 mmHg 93%
    23:00 +13°C° 0 mm 3 mps 739 mmHg 92%

    25 April, Thursday

    Time Temperature Precipitation Wind Pressure Humidity
    00:00 +14°C° 0 mm 1 mps 739 mmHg 91%
    01:00 +12°C° 0 mm 0 mps 740 mmHg 90%
    02:00 +13°C° 0.2 mm 1 mps 740 mmHg 91%
    03:00 +13°C° 0.2 mm 1 mps 740 mmHg 91%
    04:00 +13°C° 0.2 mm 1 mps 740 mmHg 92%
    05:00 +13°C° 0.7 mm 1 mps 740 mmHg 92%
    06:00 +13°C° 0.7 mm 1 mps 740 mmHg 92%
    07:00 +12°C° 0.7 mm 0 mps 740 mmHg 92%
    08:00 +14°C° 0.2 mm 1 mps 740 mmHg 87%
    09:00 +15°C° 0.2 mm 1 mps 740 mmHg 82%
    10:00 +16°C° 0.2 mm 2 mps 740 mmHg 77%
    11:00 +17°C° 0 mm 2 mps 740 mmHg 73%
    12:00 +18°C° 0 mm 2 mps 739 mmHg 68%
    13:00 +19°C° 0 mm 2 mps 739 mmHg 64%
    14:00 +19°C° 0 mm 3 mps 738 mmHg 64%
    15:00 +20°C° 0 mm 4 mps 738 mmHg 64%
    16:00 +21°C° 0 mm 5 mps 737 mmHg 64%
    17:00 +20°C° 0 mm 4 mps 736 mmHg 70%
    18:00 +19°C° 0 mm 3 mps 736 mmHg 76%
    19:00 +18°C° 0 mm 2 mps 736 mmHg 82%
    20:00 +17°C° 1.3 mm 2 mps 736 mmHg 86%
    21:00 +16°C° 1.3 mm 2 mps 737 mmHg 90%
    22:00 +15°C° 1.3 mm 2 mps 737 mmHg 94%
    23:00 +13°C° 0.2 mm 4 mps 737 mmHg 93%
    Show more